Skip Page Navigation
NASA JPL Caltech
NASA Logo - Jet Propulsion Laboratory + View the NASA Portal
+ Center for Near-Earth Object Studies
JPL Home Earth Solar System Stars & Galaxies Technology
JPL Solar System Dynamics
BODIES ORBITS EPHEMERIDES TOOLS PHYSICAL DATA DISCOVERY FAQ SITE MAP
JPL Small-Body Database Browser
Search: [ help ]  
(2006 FH51)
Classification: Outer Main-belt Asteroid          SPK-ID: 3330052
Ephemeris | Orbit Diagram | Orbital Elements | Mission Design | Physical Parameters | Close-Approach Data ]

[ show orbit diagram ]
Orbital Elements at Epoch 2459200.5 (2020-Dec-17.0) TDB
Reference: JPL 11 (heliocentric ecliptic J2000)
 Element Value Uncertainty (1-sigma)   Units 
e .5478990572378694 2.4538e-07  
a 3.344919726209446 1.1887e-07 au
q 1.512241361682938 8.5156e-07 au
i 10.60068025355071 1.5991e-05 deg
node 159.9184403224348 3.7038e-05 deg
peri 75.15759093045698 0.00010034 deg
M 137.7393650532672 6.3103e-05 deg
tp 2458345.566072074212
(2018-Aug-15.06607207)
0.00034683 TDB
period 2234.48259641867
6.12
0.00011912
3.261e-07
d
yr
n .1611111228062336 8.5885e-09 deg/d
Q 5.177598090735953 1.8401e-07 au
  Orbit Determination Parameters
   # obs. used (total)      122  
   data-arc span      4374 days (11.98 yr)  
   first obs. used      2006-03-26  
   last obs. used      2018-03-17  
   planetary ephem.      DE441  
   SB-pert. ephem.      SB441-N16  
   condition code      0  
   norm. resid. RMS      .54902  
   source      ORB  
   producer      Otto Matic  
   solution date      2021-Apr-14 23:36:41  

Additional Information
 Earth MOID = .546261 au 
 Jupiter MOID = .649738 au 
 T_jup = 2.874 
[ show covariance matrix ]

Ephemeris | Orbit Diagram | Orbital Elements | Mission Design | Physical Parameters | Close-Approach Data ]

Physical Parameter Table
Parameter Symbol Value Units Sigma Reference Notes
absolute magnitude H 18.2   n/a MPO234375  

[ show close-approach data ]
Ephemeris | Orbit Diagram | Orbital Elements | Mission Design | Physical Parameters | Close-Approach Data ]
ABOUT SSD CREDITS/AWARDS PRIVACY/COPYRIGHT GLOSSARY LINKS
FirstGov 2021-May-07 20:29 UT
(server date/time)  
NASA Home Page
Site Manager:   Ryan S. Park
Webmaster  Alan B. Chamberlin